NOAA 16 DEB, 41060

Orbit data source: Space-Track

NOAA 16 DEB, 41060 is space debris in SSO originally from a launch on Thu, 21 Sep 2000 UTC launched from the Air Force Western Test Range (AFWTR). Debris objects in space refer to the collection of defunct objects orbiting the Earth. Examples of debris include non-operational satellites, rocket bodies, and fragments generated from explosions, collisions, or faulty payload assembly.

Loading next visibility...
Identifier
41060, 2000-055T
Orbit
SSO
Country
Flag of USUS
Related business
Manufacturer
Unknown
Mission
Spacecraft
Bus & Motor
Unknown
Mass
Unknown
Launch date (UTC)
2000-09-21 (25 years ago)
Launch vehicle
Unknown
Launch site
Air Force Western Test Range (AFWTR)
Object type
Payload
Rocket body
Debris
Shape & HBR
Unknown shape, 0.1 m
Radar Cross Section
Small (<0.1 m²)

Expand to show TLE details & history
Last TLE update: 22 hours ago

TLE from 22 hours ago
0 NOAA 16 DEB
1 41060U 00055T   25312.62614051  .00004211  00000-0  13435-2 0  9995
2 41060  98.9752 195.0665 0079613   1.6186 358.5243 14.38491170520075
Epoch: 2025-11-08T15:01Z
TLE epoch observation values (Epoch: 2025-11-08T15:01:38.540Z)
Latitude
0.00002°
Longitude
-78.39714°
Altitude
709.57 km
Speed
7.531 km/s
True Right ascension
13h 00m 15s
True Declination
0° 00' 00"
Sunlit
Object was in daylight at epoch
Visualization orbit readout
Latitude
Unknown
Longitude
Unknown
Altitude
Unknown
Speed
Unknown
Apparent Right ascension
Unknown
Apparent Declination
Unknown
Sunlit
N/A
Visualization observer readout
Local Sidereal Time
08:53:15
Azimuth
Unknown
Elevation
Unknown
Doppler factor
Unknown
Orbital elements
Apogee altitude
817.469 km
Perigee altitude
703.801 km
Semi-major axis
7,138.772 km
Eccentricity
0.00796
Inclination
98.9752°
RAAN
195.0665°
Arg. of periapsis
1.6186°
True anomaly
358.50057°
Mean anomaly
358.5243°
Eccentric anomaly
358.51246°
Mean motion
3.59839 °/min
Orbital period
100.04 mins
BSTAR
0.0013435
Loading maneuver chart data...
Computing Atmospheric mass density...
Loading historical data...
Loading historical data...
Loading historical data...
Loading historical data...
Loading historical data...
Loading historical data...
Loading historical data...

Documentation

Showing up to 5 results
|